sat.trackr.live / text

‹ back to catalog

STARLINK-3260

NORAD 50205 · 2021-125BB

PAYLOAD ACTIVE UNKNOWN

§ Identity

Operator
Country
US
Launch date
2021-12-18
Launch site
AFWTR
Launch vehicle
Mass (kg)
RCS (m²)

Purposes: comms

External: N2YO · Heavens-Above · Gunter

§ Orbital elements

Epoch: 2026-09-15T21:30:22.346208Z

Period
94.01 min
Inclination
53.1608°
Eccentricity
0.0001078
Mean motion
15.31709700 rev/d
Perigee alt
470.0 km
Apogee alt
471.4 km
Semi-major
6,848.8 km
B*
4.9632e-5
RAAN
70.2507°
Arg perigee
80.4454°
Mean anomaly
279.6669°
Rev number
26,593

§ Raw data

STARLINK-32601 50205U 21125BB  26258.89609197  .00001176  00000+0  49632-4 0  99972 50205  53.1608  70.2507 0001078  80.4454 279.6669 15.31709700265932

JSON: /api/v1/satellites/50205 · /tle

For live sub-satellite position, see the globe view (requires WebGL).

§ Visibility from observer

Set your observer location to see the next 7 days of passes ≥ 10°. The values pass through the URL so the page stays shareable.

No JS? Fill the form by hand. The geolocation button needs JavaScript.